{"data":{"norad_id":68298,"epoch":"2026-05-24T21:36:18.283104Z","epoch_age_seconds":79695,"freshness":"FRESH","line1":"1 68298U 26057E   26144.90021161  .00203151  00000+0  13311-2 0  9992","line2":"2 68298  97.2848 271.1528 0002516  58.5059 301.6452 15.75181712 10285","mean_motion":15.75181712,"eccentricity":0.0002516,"inclination_deg":97.2848,"raan_deg":271.1528,"arg_perigee_deg":58.5059,"mean_anomaly_deg":301.6452,"bstar":0.0013311,"rev_number":1028,"period_min":91.418024284426,"perigee_km":342.42283012576,"apogee_km":345.80546690369,"semimajor_km":6722.2511485147,"source":"CELESTRAK","updated_at":"2026-05-25T13:38:21.916282Z"}}